TimeEDT,TemperatureF,Dew PointF,Humidity,Sea Level PressureIn,VisibilityMPH,Wind Direction,Wind SpeedMPH,Gust SpeedMPH,PrecipitationIn,Events,Conditions,WindDirDegrees,DateUTC
12:53 AM,79.0,72.0,79,29.94,10.0,WSW,6.9,-,N/A,,Clear,240,2013-06-15 04:53:00
1:53 AM,78.1,72.0,81,29.96,10.0,West,6.9,-,N/A,,Clear,270,2013-06-15 05:53:00
2:53 AM,75.9,72.0,87,29.94,10.0,West,3.5,-,N/A,,Clear,270,2013-06-15 06:53:00
3:53 AM,75.0,71.1,87,29.95,10.0,Calm,Calm,-,N/A,,Clear,0,2013-06-15 07:53:00
4:53 AM,73.0,71.1,93,29.96,10.0,West,3.5,-,N/A,,Clear,260,2013-06-15 08:53:00
5:53 AM,73.0,71.1,93,29.97,10.0,WSW,3.5,-,N/A,,Clear,250,2013-06-15 09:53:00
6:53 AM,73.0,71.1,93,30.00,8.0,Calm,Calm,-,N/A,,Clear,0,2013-06-15 10:53:00
7:53 AM,78.1,73.9,87,30.00,10.0,West,3.5,-,N/A,,Clear,260,2013-06-15 11:53:00
8:53 AM,82.0,75.0,79,30.01,10.0,West,5.8,-,N/A,,Clear,280,2013-06-15 12:53:00
9:53 AM,84.9,75.0,72,30.02,10.0,Calm,Calm,-,N/A,,Partly Cloudy,0,2013-06-15 13:53:00
10:24 AM,87.8,73.4,62,30.03,10.0,Variable,4.6,-,N/A,,Mostly Cloudy,0,2013-06-15 14:24:00
10:50 AM,87.8,73.4,62,30.03,10.0,NE,3.5,-,N/A,,Scattered Clouds,50,2013-06-15 14:50:00
10:53 AM,88.0,72.0,59,30.03,10.0,Variable,4.6,-,N/A,,Partly Cloudy,0,2013-06-15 14:53:00
11:53 AM,87.1,73.9,65,30.04,10.0,NNE,9.2,-,N/A,,Mostly Cloudy,30,2013-06-15 15:53:00
12:10 PM,87.8,73.4,62,30.04,10.0,East,5.8,-,N/A,,Mostly Cloudy,90,2013-06-15 16:10:00
12:53 PM,88.0,73.9,63,30.04,10.0,ENE,8.1,-,N/A,,Scattered Clouds,70,2013-06-15 16:53:00
1:53 PM,88.0,73.9,63,30.03,10.0,East,9.2,-,N/A,,Clear,80,2013-06-15 17:53:00
2:53 PM,88.0,73.9,63,30.01,10.0,ENE,10.4,-,N/A,,Clear,70,2013-06-15 18:53:00
3:53 PM,87.1,75.0,67,30.01,10.0,ENE,12.7,-,N/A,,Clear,60,2013-06-15 19:53:00
4:53 PM,86.0,75.9,72,30.01,10.0,ENE,15.0,-,N/A,,Partly Cloudy,60,2013-06-15 20:53:00
5:53 PM,84.9,75.9,74,30.02,10.0,ENE,16.1,-,N/A,,Clear,70,2013-06-15 21:53:00
6:53 PM,82.9,75.0,77,30.02,10.0,East,12.7,20.7,N/A,,Clear,90,2013-06-15 22:53:00
7:53 PM,82.0,73.9,76,30.03,10.0,East,9.2,-,N/A,,Clear,80,2013-06-15 23:53:00
8:53 PM,81.0,75.0,82,30.04,10.0,East,9.2,-,N/A,,Mostly Cloudy,90,2013-06-16 00:53:00
9:53 PM,81.0,73.9,79,30.06,10.0,East,6.9,-,N/A,,Partly Cloudy,100,2013-06-16 01:53:00
10:53 PM,81.0,73.9,79,30.06,10.0,East,9.2,-,N/A,,Clear,100,2013-06-16 02:53:00
11:53 PM,80.1,73.9,81,30.08,10.0,ESE,8.1,-,N/A,,Partly Cloudy,110,2013-06-16 03:53:00